Regional Weather Roundup
Issued by NWS

Home | Current Version | Previous Version | Graphics & Text | Print | Product List | Glossary On
Versions: 1 2 3 4 5 6 7 8 9 10 11 12 13 14 15 16 17 18 19 20 21 22 23 24 25 26 27 28 29 30 31 32 33 34 35 36 37 38 39 40 41 42 43 44 45 46 47 48 49 50
000
ASUS43 KFSD 100902
RWRSD

WEATHER ROUNDUP FOR SOUTH DAKOTA
NATIONAL WEATHER SERVICE SIOUX FALLS SD
400 AM CDT THU JUL 10 2014

NOTE: "FAIR" INDICATES FEW OR NO CLOUDS BELOW 12,000 FEET WITH NO
SIGNIFICANT WEATHER AND/OR OBSTRUCTIONS TO VISIBILITY.


SDZ001>005-009-010-012>017-101000-
NORTHWEST AND NORTH CENTRAL SOUTH DAKOTA

CITY           SKY/WX    TMP DP  RH WIND       PRES   REMARKS
BUFFALO          N/A     60  54  80 SE12      29.85F
FAITH            N/A     59  56  89 SE8       29.92F
MOBRIDGE       CLEAR     60  57  89 SE6       29.91F
$$

SDZ012>016-024>037-041>051-057-063-072>074-101000-
SOUTHWEST AND SOUTH CENTRAL SOUTH DAKOTA

CITY           SKY/WX    TMP DP  RH WIND       PRES   REMARKS
RAPID CTY ARPT PTCLDY    57  55  93 CALM      29.93F
PIERRE         CLEAR     56  54  93 E8        29.92F
CUSTER         CLOUDY    58  55  90 N9        30.06R
ELLSWORTH AFB  MOCLDY    60  58  92 S6        29.93S
PHILIP         CLEAR     57  55  93 E6        29.91F
PINE RIDGE     CLEAR     61  58  90 SW3       29.91F
WINNER         CLOUDY    62  59  90 E10       29.94F
$$

SDZ004>011-016>023-039-040-101000-
NORTHEAST SOUTH DAKOTA

CITY           SKY/WX    TMP DP  RH WIND       PRES   REMARKS
ABERDEEN       CLEAR     56  54  93 SE7       29.96F
WATERTOWN      CLEAR     60  52  74 CALM      29.99F
SISSETON         N/A     55  54  96 SE3       29.98F
$$

SDZ017-020-022-023-036>040-048>070-101000-
SOUTHEAST SOUTH DAKOTA

CITY           SKY/WX    TMP DP  RH WIND       PRES   REMARKS
SIOUX FALLS    CLEAR     60  57  89 NE3       29.99F
HURON          CLEAR     60  57  89 SE5       29.96F FOG
CHAMBERLAIN    PTCLDY    58  56  94 SE6       29.95S
MITCHELL       CLEAR     58  57  97 E5        29.96F
YANKTON        CLEAR     57  57 100 E6        29.98S
$$

ABBREVIATIONS USED IN REMARKS
   TC - TEMPERATURE IN CELSIUS
  WCI - WIND CHILL INDEX
   HX - HEAT INDEX
  VSB - VISIBILITY




USA.gov is the U.S. government's official web portal to all federal, state and local government web resources and services.